Location: Auttagershofen
(48.1940°N, 10.0237°E)
Time: 01:51:17
(UTC+00:00)

GEOS 3 Rocket - Pass Details

Date: 18 January 2026
Orbit: 768 x 845 km, 115.0° (Epoch: 6 February)

Event Time Altitude Azimuth Distance (km) Brightness Sun altitude
Rises 04:53:28 0° 132° (SE) 3,312 7.7 -21.2°
Reaches altitude 10° 04:55:44 10° 131° (SE) 2,395 6.9 -20.8°
Maximum altitude 05:00:56 76° 46° (NE) 854 3.7 -19.9°
Enters shadow 05:04:15 24° 325° (NW) 1,668 4.8 -19.4°
